FFT2498 KIND-KATL

Flight info

Callsign FFT2498
Flight time 1h 12m
Altitude 32000
Route DAWNN1 MYS HITMN/N0445F390 NEWBB IHAVE MTHEW CHPPR1
Aircraft A20N/M-SDE2E3FGHIRWXY/LB1

Departure

Time 2026-05-07 02:34
Airport Indianapolis International Airport (KIND)

Arrival

Time 2026-05-07 03:47
Airport Hartsfield Jackson Atlanta International Airport (KATL)
Time Latitude Longitude Altitude Speed Heading
2026-05-07 02:19 39.71530 -86.29559 789 ft 0 kts 142°
2026-05-07 02:26 39.71531 -86.29560 789 ft 2 kts 142°
2026-05-07 02:26 39.71543 -86.29572 788 ft 2 kts 141°
2026-05-07 02:26 39.71555 -86.29585 788 ft 2 kts 152°
2026-05-07 02:26 39.71571 -86.29598 788 ft 3 kts 126°
2026-05-07 02:27 39.71579 -86.29622 787 ft 3 kts 83°
2026-05-07 02:27 39.71582 -86.29621 787 ft 3 kts 67°
2026-05-07 02:27 39.71592 -86.29594 788 ft 2 kts 51°
2026-05-07 02:29 39.71624 -86.29542 788 ft 16 kts 49°
2026-05-07 02:30 39.71715 -86.29427 788 ft 19 kts 46°
2026-05-07 02:30 39.71753 -86.29291 789 ft 12 kts 132°
2026-05-07 02:30 39.71702 -86.29229 791 ft 9 kts 138°
2026-05-07 02:30 39.71663 -86.29184 792 ft 7 kts 139°
2026-05-07 02:31 39.71609 -86.29122 793 ft 12 kts 139°
2026-05-07 02:31 39.71589 -86.29036 794 ft 12 kts 67°
2026-05-07 02:31 39.71635 -86.28888 794 ft 19 kts 116°
2026-05-07 02:31 39.71590 -86.28762 796 ft 13 kts 72°
2026-05-07 02:32 39.71648 -86.28673 796 ft 14 kts 45°
2026-05-07 02:32 39.71725 -86.28571 795 ft 18 kts 45°
2026-05-07 02:32 39.71823 -86.28451 795 ft 20 kts 43°
2026-05-07 02:32 39.71926 -86.28316 797 ft 22 kts 44°
2026-05-07 02:33 39.72041 -86.28171 799 ft 24 kts 45°
2026-05-07 02:33 39.72038 -86.28042 800 ft 15 kts 158°
2026-05-07 02:33 39.71908 -86.28049 800 ft 31 kts 216°
2026-05-07 02:33 39.71535 -86.28528 797 ft 120 kts 226°
2026-05-07 02:34 39.70760 -86.29506 835 ft 183 kts 226°
2026-05-07 02:34 39.69860 -86.30662 1854 ft 182 kts 229°
2026-05-07 02:34 39.68956 -86.31828 2928 ft 184 kts 229°
2026-05-07 02:34 39.68042 -86.33010 4010 ft 188 kts 228°
2026-05-07 02:35 39.67015 -86.34255 4839 ft 215 kts 225°
2026-05-07 02:35 39.65849 -86.35632 5499 ft 239 kts 225°
2026-05-07 02:35 39.64457 -86.36996 6162 ft 263 kts 206°
2026-05-07 02:35 39.62630 -86.37436 7088 ft 277 kts 179°
2026-05-07 02:36 39.60698 -86.37174 8121 ft 281 kts 178°
2026-05-07 02:36 39.58732 -86.36889 9149 ft 287 kts 179°
2026-05-07 02:36 39.56733 -86.36604 10137 ft 292 kts 180°
2026-05-07 02:36 39.54642 -86.36317 10720 ft 312 kts 181°
2026-05-07 02:37 39.52454 -86.36018 11590 ft 319 kts 182°
2026-05-07 02:37 39.50234 -86.35706 12635 ft 324 kts 183°
2026-05-07 02:37 39.47966 -86.35391 13606 ft 331 kts 184°
2026-05-07 02:37 39.45662 -86.35072 14594 ft 334 kts 185°
2026-05-07 02:38 39.43342 -86.34750 15586 ft 337 kts 186°
2026-05-07 02:38 39.41006 -86.34424 16599 ft 339 kts 186°
2026-05-07 02:38 39.38652 -86.34096 17632 ft 341 kts 187°
2026-05-07 02:38 39.36281 -86.33764 18600 ft 344 kts 187°
2026-05-07 02:39 39.33892 -86.33432 19474 ft 346 kts 188°
2026-05-07 02:39 39.31489 -86.33098 20360 ft 348 kts 189°
2026-05-07 02:39 39.29072 -86.32760 21219 ft 350 kts 189°
2026-05-07 02:39 39.26642 -86.32422 22022 ft 352 kts 190°
2026-05-07 02:40 39.24198 -86.32084 22799 ft 354 kts 190°
2026-05-07 02:40 39.21772 -86.31750 23523 ft 356 kts 191°
2026-05-07 02:40 39.19303 -86.31414 24108 ft 358 kts 191°
2026-05-07 02:40 39.16820 -86.31076 24638 ft 360 kts 191°
2026-05-07 02:41 39.15348 -86.30876 24937 ft 362 kts 191°
2026-05-07 02:41 39.12951 -86.30546 25381 ft 364 kts 191°
2026-05-07 02:41 39.10422 -86.30196 25850 ft 367 kts 192°
2026-05-07 02:41 39.07881 -86.29847 26291 ft 368 kts 192°
2026-05-07 02:42 39.05323 -86.29498 26724 ft 371 kts 192°
2026-05-07 02:42 39.02748 -86.29144 27128 ft 374 kts 192°
2026-05-07 02:42 39.00153 -86.28790 27542 ft 376 kts 192°
2026-05-07 02:42 38.97542 -86.28436 27955 ft 379 kts 192°
2026-05-07 02:43 38.94911 -86.28076 28356 ft 382 kts 192°
2026-05-07 02:43 38.93162 -86.27835 28621 ft 383 kts 192°
2026-05-07 02:43 38.89599 -86.27346 29147 ft 387 kts 192°
2026-05-07 02:43 38.87820 -86.27105 29397 ft 388 kts 192°
2026-05-07 02:44 38.85124 -86.26739 29771 ft 391 kts 192°
2026-05-07 02:44 38.82407 -86.26371 30146 ft 394 kts 192°
2026-05-07 02:44 38.79667 -86.26002 30472 ft 396 kts 192°
2026-05-07 02:44 38.76917 -86.25628 30802 ft 399 kts 192°
2026-05-07 02:45 38.74152 -86.25249 31138 ft 400 kts 192°
2026-05-07 02:45 38.71379 -86.24876 31459 ft 399 kts 194°
2026-05-07 02:45 38.68710 -86.24986 31764 ft 374 kts 205°
2026-05-07 02:45 38.66130 -86.25426 31999 ft 374 kts 205°
2026-05-07 02:46 38.60985 -86.26345 32048 ft 373 kts 205°
2026-05-07 02:46 38.55783 -86.27294 32050 ft 386 kts 205°
2026-05-07 02:47 38.50347 -86.28288 32052 ft 403 kts 204°
2026-05-07 02:47 38.44732 -86.29267 32050 ft 410 kts 203°
2026-05-07 02:48 38.39074 -86.30218 32048 ft 410 kts 203°
2026-05-07 02:48 38.33411 -86.31189 32046 ft 411 kts 204°
2026-05-07 02:49 38.27746 -86.32173 32036 ft 411 kts 203°
2026-05-07 02:49 38.22091 -86.33165 32020 ft 410 kts 204°
2026-05-07 02:50 38.16471 -86.34153 32017 ft 411 kts 203°
2026-05-07 02:50 38.10812 -86.35138 32006 ft 410 kts 203°
2026-05-07 02:51 38.05154 -86.36114 31999 ft 410 kts 203°
2026-05-07 02:51 37.99498 -86.37094 31997 ft 410 kts 203°
2026-05-07 02:52 37.93846 -86.38069 31995 ft 410 kts 203°
2026-05-07 02:52 37.88198 -86.39050 31992 ft 409 kts 203°
2026-05-07 02:53 37.82553 -86.40033 31987 ft 409 kts 203°
2026-05-07 02:53 37.76905 -86.41005 31987 ft 410 kts 203°
2026-05-07 02:54 37.74079 -86.41485 32146 ft 410 kts 203°
2026-05-07 02:54 37.71253 -86.41968 32391 ft 410 kts 203°
2026-05-07 02:54 37.68429 -86.42449 32635 ft 409 kts 203°
2026-05-07 02:54 37.65616 -86.42925 32880 ft 408 kts 202°
2026-05-07 02:55 37.62808 -86.43402 32999 ft 406 kts 202°
2026-05-07 02:55 37.60007 -86.43884 33022 ft 406 kts 203°
2026-05-07 02:55 37.54416 -86.44852 33025 ft 405 kts 202°
2026-05-07 02:56 37.48827 -86.45817 33029 ft 406 kts 202°
2026-05-07 02:56 37.43216 -86.46776 33028 ft 407 kts 202°
2026-05-07 02:57 37.37596 -86.47727 33021 ft 408 kts 202°
2026-05-07 02:57 37.31968 -86.48679 33006 ft 408 kts 202°
2026-05-07 02:58 37.26339 -86.49637 33007 ft 409 kts 202°
2026-05-07 02:58 37.20696 -86.50597 33017 ft 409 kts 202°
2026-05-07 02:59 37.15044 -86.51558 33051 ft 411 kts 202°
2026-05-07 02:59 37.09375 -86.52524 33058 ft 411 kts 202°
2026-05-07 03:00 37.06492 -86.52848 33062 ft 428 kts 193°
2026-05-07 03:00 37.03453 -86.52402 33066 ft 445 kts 187°
2026-05-07 03:00 36.97328 -86.51110 33069 ft 448 kts 185°
2026-05-07 03:01 36.91193 -86.49729 33063 ft 448 kts 185°
2026-05-07 03:01 36.85057 -86.48380 33054 ft 447 kts 186°
2026-05-07 03:02 36.78931 -86.47088 33036 ft 446 kts 186°
2026-05-07 03:02 36.72807 -86.45802 33026 ft 447 kts 186°
2026-05-07 03:03 36.66678 -86.44498 33017 ft 447 kts 186°
2026-05-07 03:03 36.60553 -86.43189 33030 ft 447 kts 186°
2026-05-07 03:04 36.54426 -86.41897 33037 ft 446 kts 186°
2026-05-07 03:04 36.48302 -86.40605 33048 ft 446 kts 185°
2026-05-07 03:05 36.45235 -86.39821 33046 ft 462 kts 177°
2026-05-07 03:05 36.42177 -86.38389 33043 ft 472 kts 173°
2026-05-07 03:05 36.36078 -86.35306 33054 ft 474 kts 172°
2026-05-07 03:06 36.29980 -86.32178 33052 ft 474 kts 172°
2026-05-07 03:06 36.23876 -86.29076 33042 ft 474 kts 173°
2026-05-07 03:07 36.17804 -86.26015 33041 ft 474 kts 172°
2026-05-07 03:07 36.11687 -86.22938 33033 ft 475 kts 172°
2026-05-07 03:08 36.05567 -86.19868 33015 ft 475 kts 172°
2026-05-07 03:08 35.99443 -86.16803 33013 ft 475 kts 172°
2026-05-07 03:09 35.93316 -86.13738 33013 ft 475 kts 172°
2026-05-07 03:09 35.87190 -86.10681 33047 ft 475 kts 172°
2026-05-07 03:10 35.81067 -86.07628 33032 ft 475 kts 172°
2026-05-07 03:10 35.74935 -86.04572 33024 ft 475 kts 172°
2026-05-07 03:11 35.68804 -86.01520 33016 ft 475 kts 172°
2026-05-07 03:11 35.62679 -85.98484 33015 ft 475 kts 172°
2026-05-07 03:12 35.56542 -85.95448 33008 ft 475 kts 172°
2026-05-07 03:12 35.50412 -85.92416 33007 ft 475 kts 172°
2026-05-07 03:13 35.44283 -85.89389 33009 ft 475 kts 172°
2026-05-07 03:13 35.38156 -85.86367 33010 ft 474 kts 172°
2026-05-07 03:14 35.32034 -85.83360 33006 ft 474 kts 172°
2026-05-07 03:15 35.22861 -85.78860 32994 ft 473 kts 172°
2026-05-07 03:15 35.16753 -85.75866 32765 ft 470 kts 172°
2026-05-07 03:15 35.13740 -85.74378 32200 ft 465 kts 172°
2026-05-07 03:16 35.10741 -85.72901 31659 ft 463 kts 172°
2026-05-07 03:16 35.07779 -85.71443 31186 ft 455 kts 172°
2026-05-07 03:16 35.04871 -85.70013 30745 ft 446 kts 172°
2026-05-07 03:16 35.02010 -85.68612 30315 ft 440 kts 172°
2026-05-07 03:17 34.99173 -85.67235 29868 ft 437 kts 172°
2026-05-07 03:17 34.96358 -85.65876 29375 ft 434 kts 172°
2026-05-07 03:17 34.93552 -85.64521 28885 ft 432 kts 171°
2026-05-07 03:17 34.90760 -85.63166 28431 ft 431 kts 171°
2026-05-07 03:18 34.87982 -85.61818 27989 ft 429 kts 171°
2026-05-07 03:18 34.85218 -85.60473 27552 ft 427 kts 171°
2026-05-07 03:18 34.82466 -85.59133 27119 ft 426 kts 170°
2026-05-07 03:18 34.79726 -85.57751 26690 ft 430 kts 166°
2026-05-07 03:19 34.77162 -85.55720 26277 ft 447 kts 153°
2026-05-07 03:19 34.74707 -85.53401 25864 ft 447 kts 153°
2026-05-07 03:19 34.72266 -85.51085 25468 ft 445 kts 153°
2026-05-07 03:19 34.69829 -85.48768 25050 ft 443 kts 153°
2026-05-07 03:20 34.67406 -85.46466 24636 ft 441 kts 153°
2026-05-07 03:20 34.64989 -85.44177 24229 ft 440 kts 153°
2026-05-07 03:20 34.62576 -85.41900 23829 ft 438 kts 153°
2026-05-07 03:20 34.60176 -85.39645 23405 ft 435 kts 153°
2026-05-07 03:21 34.57791 -85.37404 22929 ft 433 kts 152°
2026-05-07 03:21 34.55415 -85.35172 22464 ft 430 kts 152°
2026-05-07 03:21 34.53084 -85.32986 22009 ft 428 kts 152°
2026-05-07 03:21 34.50741 -85.30786 21556 ft 425 kts 151°
2026-05-07 03:22 34.48410 -85.28598 21111 ft 422 kts 151°
2026-05-07 03:22 34.46097 -85.26428 20674 ft 420 kts 151°
2026-05-07 03:22 34.43793 -85.24270 20238 ft 417 kts 151°
2026-05-07 03:22 34.41500 -85.22128 19798 ft 415 kts 151°
2026-05-07 03:23 34.39222 -85.20001 19333 ft 412 kts 150°
2026-05-07 03:23 34.36960 -85.17887 18866 ft 410 kts 150°
2026-05-07 03:23 34.34712 -85.15782 18418 ft 407 kts 150°
2026-05-07 03:23 34.32474 -85.13691 17914 ft 405 kts 150°
2026-05-07 03:24 34.30249 -85.11615 17398 ft 403 kts 149°
2026-05-07 03:24 34.28037 -85.09555 16891 ft 400 kts 149°
2026-05-07 03:24 34.25828 -85.07519 16393 ft 398 kts 149°
2026-05-07 03:24 34.23637 -85.05488 15898 ft 396 kts 149°
2026-05-07 03:25 34.21458 -85.03458 15355 ft 396 kts 148°
2026-05-07 03:25 34.19278 -85.01428 14812 ft 395 kts 148°
2026-05-07 03:25 34.17107 -84.99407 14282 ft 394 kts 148°
2026-05-07 03:25 34.14934 -84.97383 13751 ft 393 kts 147°
2026-05-07 03:26 34.12775 -84.95368 13179 ft 391 kts 147°
2026-05-07 03:26 34.10666 -84.93377 12971 ft 379 kts 147°
2026-05-07 03:26 34.08615 -84.91427 12980 ft 382 kts 147°
2026-05-07 03:26 34.06490 -84.89418 12980 ft 388 kts 147°
2026-05-07 03:27 34.04373 -84.87412 12979 ft 387 kts 147°
2026-05-07 03:27 34.02259 -84.85412 12976 ft 386 kts 147°
2026-05-07 03:27 34.00143 -84.83412 12976 ft 387 kts 147°
2026-05-07 03:27 33.98024 -84.81412 12985 ft 388 kts 147°
2026-05-07 03:28 33.95900 -84.79407 12985 ft 387 kts 147°
2026-05-07 03:28 33.93813 -84.77437 12983 ft 386 kts 147°
2026-05-07 03:28 33.91667 -84.75412 12978 ft 386 kts 147°
2026-05-07 03:28 33.89553 -84.73416 13006 ft 386 kts 147°
2026-05-07 03:29 33.87442 -84.71427 13003 ft 385 kts 147°
2026-05-07 03:29 33.86048 -84.70118 12982 ft 385 kts 147°
2026-05-07 03:29 33.83936 -84.68137 12985 ft 385 kts 147°
2026-05-07 03:29 33.81134 -84.65513 12992 ft 386 kts 147°
2026-05-07 03:30 33.79709 -84.64180 12996 ft 380 kts 147°
2026-05-07 03:30 33.77040 -84.61668 12997 ft 356 kts 147°
2026-05-07 03:30 33.75139 -84.59864 12877 ft 341 kts 146°
2026-05-07 03:30 33.74043 -84.58490 12710 ft 335 kts 128°
2026-05-07 03:31 33.73236 -84.55935 12534 ft 323 kts 100°
2026-05-07 03:31 33.73058 -84.53305 12287 ft 308 kts 93°
2026-05-07 03:31 33.73060 -84.50783 12047 ft 299 kts 90°
2026-05-07 03:31 33.73125 -84.48304 11798 ft 295 kts 89°
2026-05-07 03:32 33.73193 -84.45854 11557 ft 292 kts 90°
2026-05-07 03:32 33.73242 -84.43422 11315 ft 290 kts 91°
2026-05-07 03:32 33.73273 -84.41003 11085 ft 289 kts 92°
2026-05-07 03:32 33.73292 -84.38595 10848 ft 287 kts 92°
2026-05-07 03:33 33.73300 -84.36205 10636 ft 286 kts 92°
2026-05-07 03:33 33.73300 -84.33823 10378 ft 285 kts 92°
2026-05-07 03:33 33.73296 -84.31430 10053 ft 287 kts 93°
2026-05-07 03:33 33.73294 -84.29031 9737 ft 288 kts 93°
2026-05-07 03:34 33.73297 -84.26627 9374 ft 288 kts 94°
2026-05-07 03:34 33.73302 -84.24224 9024 ft 287 kts 94°
2026-05-07 03:34 33.73303 -84.21867 8675 ft 286 kts 94°
2026-05-07 03:34 33.73304 -84.19444 8324 ft 287 kts 93°
2026-05-07 03:35 33.73304 -84.17083 7986 ft 287 kts 94°
2026-05-07 03:35 33.73305 -84.14657 7638 ft 287 kts 94°
2026-05-07 03:35 33.73311 -84.12296 7307 ft 286 kts 94°
2026-05-07 03:35 33.73314 -84.09871 6962 ft 286 kts 94°
2026-05-07 03:36 33.73318 -84.07487 6613 ft 286 kts 94°
2026-05-07 03:36 33.73323 -84.05131 6291 ft 285 kts 94°
2026-05-07 03:36 33.73330 -84.02754 5959 ft 284 kts 94°
2026-05-07 03:36 33.73350 -84.00389 5643 ft 281 kts 95°
2026-05-07 03:37 33.72974 -83.98130 5333 ft 264 kts 123°
2026-05-07 03:37 33.71901 -83.96549 5006 ft 236 kts 154°
2026-05-07 03:37 33.70443 -83.95872 4671 ft 215 kts 177°
2026-05-07 03:37 33.68992 -83.95834 4312 ft 204 kts 193°
2026-05-07 03:38 33.67678 -83.96281 4031 ft 196 kts 207°
2026-05-07 03:38 33.66543 -83.97155 3989 ft 195 kts 221°
2026-05-07 03:38 33.65647 -83.98387 3984 ft 197 kts 236°
2026-05-07 03:38 33.65074 -83.99884 3989 ft 199 kts 250°
2026-05-07 03:39 33.64884 -84.01540 3985 ft 204 kts 264°
2026-05-07 03:39 33.64891 -84.03253 3985 ft 205 kts 264°
2026-05-07 03:39 33.64898 -84.04966 3984 ft 205 kts 264°
2026-05-07 03:39 33.64904 -84.06678 3980 ft 205 kts 264°
2026-05-07 03:40 33.64910 -84.08368 3975 ft 197 kts 264°
2026-05-07 03:40 33.64916 -84.09953 3971 ft 183 kts 263°
2026-05-07 03:40 33.64920 -84.11431 3993 ft 174 kts 263°
2026-05-07 03:40 33.64922 -84.12876 3979 ft 173 kts 262°
2026-05-07 03:41 33.64924 -84.14318 3985 ft 173 kts 263°
2026-05-07 03:41 33.64927 -84.15756 3982 ft 172 kts 262°
2026-05-07 03:41 33.64930 -84.17191 3990 ft 171 kts 262°
2026-05-07 03:41 33.64933 -84.18605 3988 ft 168 kts 262°
2026-05-07 03:42 33.64935 -84.20012 3991 ft 168 kts 262°
2026-05-07 03:42 33.64939 -84.21397 3983 ft 158 kts 262°
2026-05-07 03:42 33.64942 -84.22663 3872 ft 150 kts 261°
2026-05-07 03:42 33.64944 -84.23880 3726 ft 141 kts 261°
2026-05-07 03:43 33.64945 -84.25048 3553 ft 139 kts 260°
2026-05-07 03:43 33.64945 -84.26211 3390 ft 140 kts 259°
2026-05-07 03:43 33.64946 -84.27374 3212 ft 140 kts 259°
2026-05-07 03:43 33.64947 -84.28541 3028 ft 140 kts 260°
2026-05-07 03:44 33.64947 -84.29708 2845 ft 142 kts 261°
2026-05-07 03:44 33.64948 -84.30902 2666 ft 143 kts 260°
2026-05-07 03:44 33.64950 -84.32077 2486 ft 140 kts 261°
2026-05-07 03:44 33.64951 -84.33249 2301 ft 141 kts 261°
2026-05-07 03:45 33.64951 -84.34427 2113 ft 142 kts 261°
2026-05-07 03:45 33.64952 -84.35608 1925 ft 142 kts 263°
2026-05-07 03:45 33.64952 -84.36809 1733 ft 147 kts 263°
2026-05-07 03:45 33.64959 -84.38052 1548 ft 149 kts 265°
2026-05-07 03:46 33.64947 -84.39295 1298 ft 148 kts 264°
2026-05-07 03:46 33.64953 -84.40522 1100 ft 146 kts 266°
2026-05-07 03:46 33.64962 -84.41697 1011 ft 129 kts 265°
2026-05-07 03:46 33.64950 -84.42470 1007 ft 62 kts 272°
2026-05-07 03:47 33.64907 -84.42723 1007 ft 17 kts 251°
2026-05-07 03:47 33.64843 -84.42803 1006 ft 0 kts 179°
2026-05-07 03:48 33.64838 -84.42802 1006 ft 5 kts 177°
2026-05-07 03:48 33.64784 -84.42709 1006 ft 24 kts 74°
2026-05-07 03:49 33.64794 -84.42628 1006 ft 8 kts 92°
2026-05-07 03:49 33.64790 -84.42520 1006 ft 18 kts 91°
2026-05-07 03:49 33.64789 -84.42374 1006 ft 16 kts 90°
2026-05-07 03:49 33.64764 -84.42253 1006 ft 15 kts 137°
2026-05-07 03:50 33.64655 -84.42239 1004 ft 17 kts 180°
2026-05-07 03:50 33.64531 -84.42235 1006 ft 18 kts 179°
2026-05-07 03:50 33.64402 -84.42232 1006 ft 20 kts 179°
2026-05-07 03:50 33.64274 -84.42263 1006 ft 19 kts 236°
2026-05-07 03:51 33.64285 -84.42410 1006 ft 19 kts 320°
2026-05-07 03:51 33.64350 -84.42470 1006 ft 10 kts 250°
2026-05-07 03:51 33.64350 -84.42521 1006 ft 0 kts 270°